STARLINK-3115, 49447

Orbit data source: Space-Track

STARLINK-3115, 49447 is a payload satellite owned by SpaceX/Seattle (US) in LEO that was launched on Sat, 13 Nov 2021 UTC via an FALCON 9 launch vehicle from the Air Force Eastern Test Range (AFETR). Payload-class satellites include a variety of spacecraft equipped with specific instruments for various scientific and technological missions. These include communications satellites like Starlink; space stations such as the ISS; scientific satellites like the Hubble; Earth observation satellites from companies like Planet Labs, Umbra, and HawkEye 360; GPS; miniature CubeSats for education and research; and military/defense satellites.

Loading next visibility...
Identifier
49447, 2021-104AR
Orbit
LEO
Country
Flag of USUS
Related business
Manufacturer
SpaceX/Seattle
Mission
Operational Commercial Communications
Bus & Motor
STARLINK, Unknown motor
Mass
290 kg wet, ~270 kg dry
Launch date (UTC)
2021-11-13 (5 years ago)
Launch vehicle
FALCON 9
Launch site
Air Force Eastern Test Range (AFETR)
Object type
Payload
Rocket body
Debris
Shape & HBR
Box + 1 Pan, 10.1 m
Radar Cross Section
13.562 m², Large (>1 m²)

Expand to show TLE details & history
Last TLE update: 1 week ago

TLE from 1 week ago
0 STARLINK-3115
1 49447U 21104AR  26154.33549191 -.00000227  00000-0  39137-5 0  9999
2 49447  53.1912 194.6387 0004335 151.8466 208.2761 15.08837429251703
Epoch: 2026-06-03T08:03Z
TLE epoch observation values (Epoch: 2026-06-03T08:03:06.501Z)
Latitude
0.00001°
Longitude
-177.93397°
Altitude
543.287 km
Speed
7.59 km/s
True Right ascension
12h 58m 33s
True Declination
0° 00' 00"
Sunlit
Object was in full shadow at epoch
Visualization orbit readout
Latitude
Unknown
Longitude
Unknown
Altitude
Unknown
Speed
Unknown
Apparent Right ascension
Unknown
Apparent Declination
Unknown
Sunlit
N/A
Visualization observer readout
Local Sidereal Time
14:51:15
Azimuth
Unknown
Elevation
Unknown
Doppler factor
Unknown
Orbital elements
Apogee altitude
542.999 km
Perigee altitude
537.001 km
Semi-major axis
6,918.137 km
Eccentricity
0.00043
Inclination
53.1912°
RAAN
194.6387°
Arg. of periapsis
151.8466°
True anomaly
208.25258°
Mean anomaly
208.2761°
Eccentric anomaly
208.26434°
Mean motion
3.77189 °/min
Orbital period
95.44 mins
BSTAR
0.0000039137
Loading maneuver chart data...
Computing Atmospheric mass density...
Loading historical data...
Loading historical data...
Loading historical data...
Loading historical data...
Loading historical data...
Loading historical data...
Loading historical data...

Documentation

Showing up to 5 results
|